Regional Weather Roundup
Issued by NWS

Home | Current Version | Previous Version | Graphics & Text | Print | Product List | Glossary On
Versions: 1 2 3 4 5 6 7 8 9 10 11 12 13 14 15 16 17 18 19 20 21 22 23 24 25 26 27 28 29 30 31 32 33 34 35 36 37 38 39 40 41 42 43 44 45 46 47 48 49 50
000
ASUS45 KPSR 311010
RWRAZ

ARIZONA REGIONAL HOURLY WEATHER ROUNDUP
NATIONAL WEATHER SERVICE PHOENIX AZ
300 AM MST SUN AUG 31 2014

NOTE: FAIR INDICATES FEW OR NO CLOUDS BELOW 12,000 FEET WITH NO
SIGNIFICANT WEATHER AND/OR OBSTRUCTIONS TO VISIBILITY.

AZZ001>003-036-311100-
NORTHWEST ARIZONA

CITY           SKY/WX    TMP DP  RH WIND       PRES   REMARKS
BULLHEAD CITY  FAIR      90  41  18 CALM      29.69R
KINGMAN        FAIR      84  38  19 S18G26    29.90S
$$

AZZ004>008-015-016-018-311100-
NORTH CENTRAL ARIZONA

CITY           SKY/WX    TMP DP  RH WIND       PRES   REMARKS
GRAND CANYON     N/A    N/A N/A N/A MISG        N/A
WILLIAMS       FAIR      68  36  30 SW14G21   30.23S
PRESCOTT       FAIR      62  43  49 CALM      30.07S
FLAGSTAFF      FAIR      54  40  59 W3        30.21S
PAYSON         FAIR      64  39  39 CALM      30.10S
PAGE           FAIR      79  33  19 S9        29.90S
$$

AZZ009>014-017-311100-
NORTHEAST ARIZONA

CITY           SKY/WX    TMP DP  RH WIND       PRES   REMARKS
WINSLOW        FAIR      65  42  43 SW12      30.04S
SAINT JOHNS    FAIR      65  41  41 S10       30.11F
SHOW LOW       FAIR      61  37  41 S10       30.20S
$$

AZZ023-311100-
GREATER PHOENIX AREA

CITY           SKY/WX    TMP DP  RH WIND       PRES   REMARKS
PHOENIX        FAIR      89  48  24 E5        29.76S
BUCKEYE          N/A     79  54  41 NE5       29.77S
LUKE AFB       NOT AVBL
DEER VALLEY    FAIR      82  46  28 CALM      29.78F
SCOTTSDALE     FAIR      86  48  26 CALM      29.81S
MESA-GATEWAY   FAIR      79  46  31 SE7       29.82S
$$

AZZ027-028-311100-
SOUTHWEST MARICOPA COUNTY AND PINAL COUNTY

CITY           SKY/WX    TMP DP  RH WIND       PRES   REMARKS
CASA GRANDE    FAIR      81  45  28 CALM      29.82R
$$

AZZ503-504-507>509-311100-
SOUTHEAST ARIZONA

CITY           SKY/WX    TMP DP  RH WIND       PRES   REMARKS
TUCSON         FAIR      78  48  34 S8        29.94R
DAVIS-MONTHAN  FAIR      77  47  34 S8        29.92R
NOGALES        FAIR      65  50  58 CALM      30.03S
SIERRA VISTA   FAIR      72  48  42 SE6       30.08S
DOUGLAS        FAIR      68  52  56 E6        30.04S
SAFFORD        FAIR      73  47  39 E3        29.93R
$$

AZZ020-021-025-026-031-311100-
SOUTHWEST ARIZONA

CITY           SKY/WX    TMP DP  RH WIND       PRES   REMARKS
YUMA           FAIR      91  49  23 SE12      29.67F
$$

CAZ031-033-041-043-047-048-061-311100-
SOUTHERN CALIFORNIA

CITY           SKY/WX    TMP DP  RH WIND       PRES   REMARKS
DOWNTOWN L.A.  FAIR      69  64  84 CALM      29.78S
L.A. AIRPORT   FAIR      70  66  87 CALM      29.79R
SAN DIEGO      CLOUDY    69  64  84 S7        29.82S
BURBANK        FAIR      73  59  61 E7        29.79S
ONTARIO        FAIR      72  60  66 SW3       29.80S
RIVERSIDE      FAIR      72  55  55 CALM      29.80S
PALM SPRINGS   FAIR      85  51  31 S5        29.69S
IMPERIAL       FAIR      84  61  45 S6        29.64F
BLYTHE         FAIR      89  48  24 S8        29.68F
NEEDLES        FAIR      93  41  16 SW5       29.70S
$$

NVZ020-UTZ003-311100-
SOUTHERN NEVADA-UTAH

CITY           SKY/WX    TMP DP  RH WIND       PRES   REMARKS
LAS VEGAS      FAIR      86  32  14 S16       29.68S
SALT LAKE CITY MOCLDY    67  45  45 N21G35    29.89R
$$

NMZ009-TXZ055-311100-
NEW MEXICO-WEST TEXAS

CITY           SKY/WX    TMP DP  RH WIND       PRES   REMARKS
ALBUQUERQUE    PTCLDY    68  42  38 SE9       30.08R
EL PASO        FAIR      74  49  41 SW5       30.01R
$$


........................KEY........................
SKY/WX - SKY CONDITION/WEATHER
TMP    - TEMPERATURE IN FAHRENHEIT
DP     - DEW POINT IN FAHRENHEIT
RH     - RELATIVE HUMIDITY IN PERCENT
WIND   - DIRECTION AND SPEED IN MILES PER HOUR (MPH)
VRB    - VARIABLE WIND DIRECTION
PRES   - MEAN SEA LEVEL PRESSURE IN INCHES OF MERCURY
         F - FALLING PRESSURE   R - RISING PRESSURE
         S - STEADY PRESSURE
VSB    - VISIBILITY IN MILES
HX     - HEAT INDEX IN FAHRENHEIT
WCI    - WIND CHILL INDEX IN FAHRENHEIT
TC     - TEMPERATURE IN CELSIUS WHICH IS ALSO KNOWN AS
         TEMPERATURE IN CENTIGRADE
AFB    - AIR FORCE BASE
         LUKE AFB IS LUKE AIR FORCE BASE
         DAVIS-MONTHAN IS DAVIS-MONTHAN AIR FORCE BASE
NAS    - NAVAL AIR STATION
         EL CENTRO NAS IS EL CENTRO NAVAL AIR STATION
N/A    - NOT AVAILABLE



USA.gov is the U.S. government's official web portal to all federal, state and local government web resources and services.